Regional Weather Roundup
Issued by NWS

Home | Current Version | Previous Version | Graphics & Text | Print | Product List | Glossary On
Versions: 1 2 3 4 5 6 7 8 9 10 11 12 13 14 15 16 17 18 19 20 21 22 23 24 25 26 27 28 29 30 31 32 33 34 35 36 37 38 39 40 41 42 43 44 45 46 47 48 49 50
000
ASUS43 KBIS 051501
RWRND

NORTH DAKOTA REGIONAL WEATHER ROUNDUP
NATIONAL WEATHER SERVICE BISMARCK ND
1000 AM CDT TUE MAY 05 2015

NOTE: "FAIR" INDICATES FEW OR NO CLOUDS BELOW 12,000 FEET WITH NO
SIGNIFICANT WEATHER AND/OR OBSTRUCTIONS TO VISIBILITY.


NDZ001>003-009>011-017-051600-
NORTHWEST NORTH DAKOTA

CITY           SKY/WX    TMP DP  RH WIND       PRES   REMARKS
WILLISTON      SUNNY     62  30  29 S10       29.92F
MINOT          CLOUDY    60  31  33 SE12G21   29.99F
MINOT AFB      MOSUNNY   64  33  30 S18       29.99F
$$

NDZ018>021-031>035-040>046-051600-
SOUTHWEST NORTH DAKOTA

CITY           SKY/WX    TMP DP  RH WIND       PRES   REMARKS
BISMARCK       MOSUNNY   61  37  41 SE14      30.05F
DICKINSON      SUNNY     61  34  36 S24G33    29.94F
GARRISON         N/A     60  33  36 S15       30.00F
HETTINGER ARPT PTSUNNY   59  35  40 SE18G28   29.98F
$$

NDZ004>008-012>016-024-026-027-054-051600-
NORTHEAST NORTH DAKOTA

CITY           SKY/WX    TMP DP  RH WIND       PRES   REMARKS
GRAND FORKS    PTSUNNY   64  27  24 S16       30.16F
GRND FRKS AFB  MOSUNNY   62  28  27 S17       30.15F
DEVILS LAKE    PTSUNNY   61  36  39 S20       30.10F
$$

NDZ022-023-025-028>030-036>039-047>053-051600-
SOUTHEAST NORTH DAKOTA

CITY           SKY/WX    TMP DP  RH WIND       PRES   REMARKS
FARGO          SUNNY     67  23  19 SE17G26   30.15F
JAMESTOWN      MOSUNNY   65  30  27 S18G25    30.12S
$$




USA.gov is the U.S. government's official web portal to all federal, state and local government web resources and services.